Radiation Dose at Monitoring Post of Fukushima Daini Nuclear Power Station
Date,Time,MP-1(microSv/h),MP-2(microSv/h),MP-3(microSv/h),MP-4(microSv/h),MP-5(microSv/h),MP-6(microSv/h),MP-7(microSv/h),Wind Direction,Wind Velocity(m/s),Rain
2019/12/31,00:00,0.179,0.162,0.272,0.253,0.252,0.138,0.086,southwest,4.0,No
2019/12/31,00:10,0.180,0.163,0.273,0.252,0.250,0.138,0.085,southwest,2.6,No
2019/12/31,00:20,0.181,0.162,0.272,0.254,0.250,0.139,0.085,south-southwest,1.5,No
2019/12/31,00:30,0.180,0.162,0.272,0.252,0.253,0.139,0.085,south-southwest,4.4,No
2019/12/31,00:40,0.179,0.163,0.272,0.252,0.250,0.139,0.087,south-southwest,4.1,No
2019/12/31,00:50,0.180,0.163,0.271,0.253,0.251,0.140,0.086,south-southwest,3.6,No
2019/12/31,01:00,0.180,0.162,0.273,0.253,0.251,0.138,0.086,southwest,4.1,No
2019/12/31,01:10,0.180,0.162,0.272,0.252,0.250,0.139,0.085,southwest,3.9,No
2019/12/31,01:20,0.179,0.162,0.272,0.253,0.251,0.138,0.084,west-southwest,2.8,No
2019/12/31,01:30,0.180,0.163,0.272,0.253,0.251,0.139,0.086,west-southwest,1.6,No
2019/12/31,01:40,0.180,0.162,0.272,0.253,0.252,0.138,0.086,west-southwest,2.0,No
2019/12/31,01:50,0.180,0.162,0.273,0.254,0.251,0.137,0.086,west-southwest,1.8,No
2019/12/31,02:00,0.181,0.161,0.271,0.253,0.251,0.138,0.085,west-southwest,4.2,No
2019/12/31,02:10,0.180,0.162,0.273,0.252,0.251,0.139,0.085,west,3.9,No
2019/12/31,02:20,0.181,0.162,0.273,0.253,0.252,0.138,0.085,west,5.4,No
2019/12/31,02:30,0.180,0.161,0.273,0.253,0.251,0.138,0.085,west,7.1,No
2019/12/31,02:40,0.179,0.162,0.272,0.253,0.252,0.138,0.086,west,8.1,No
2019/12/31,02:50,0.180,0.162,0.272,0.253,0.251,0.138,0.085,west-southwest,3.4,No
2019/12/31,03:00,0.179,0.162,0.272,0.252,0.250,0.138,0.085,west-southwest,2.9,No
2019/12/31,03:10,0.179,0.162,0.273,0.254,0.251,0.138,0.085,west-southwest,5.0,No
2019/12/31,03:20,0.180,0.162,0.272,0.252,0.250,0.138,0.085,west-southwest,4.9,No
2019/12/31,03:30,0.180,0.161,0.272,0.252,0.250,0.138,0.085,southwest,4.7,No
2019/12/31,03:40,0.179,0.162,0.271,0.254,0.250,0.138,0.085,west-southwest,4.8,No
2019/12/31,03:50,0.180,0.162,0.272,0.252,0.251,0.138,0.084,west-southwest,4.3,No
2019/12/31,04:00,0.180,0.161,0.273,0.252,0.251,0.138,0.085,west-southwest,3.3,No
2019/12/31,04:10,0.178,0.161,0.271,0.254,0.252,0.138,0.084,west-southwest,4.1,No
2019/12/31,04:20,0.180,0.162,0.271,0.252,0.251,0.138,0.085,west-southwest,3.0,No
2019/12/31,04:30,0.180,0.161,0.272,0.252,0.250,0.138,0.085,southwest,3.5,No
2019/12/31,04:40,0.180,0.162,0.272,0.253,0.252,0.138,0.085,southwest,4.9,No
2019/12/31,04:50,0.179,0.162,0.272,0.252,0.251,0.139,0.085,southwest,4.5,No
2019/12/31,05:00,0.180,0.162,0.272,0.252,0.251,0.139,0.085,south-southwest,3.6,No
2019/12/31,05:10,0.179,0.162,0.272,0.253,0.251,0.138,0.085,southwest,3.7,No
2019/12/31,05:20,0.180,0.163,0.272,0.253,0.250,0.138,0.085,southwest,4.0,No
2019/12/31,05:30,0.178,0.162,0.273,0.252,0.251,0.138,0.085,southwest,3.1,No
2019/12/31,05:40,0.180,0.161,0.271,0.253,0.252,0.138,0.084,south,2.9,No
2019/12/31,05:50,0.179,0.161,0.272,0.253,0.251,0.138,0.085,south-southeast,2.6,No
2019/12/31,06:00,0.179,0.163,0.271,0.253,0.250,0.139,0.085,south,1.9,No
2019/12/31,06:10,0.180,0.162,0.273,0.252,0.253,0.139,0.086,west-southwest,0.7,No
2019/12/31,06:20,0.179,0.162,0.272,0.253,0.251,0.138,0.085,-,CALM,No
2019/12/31,06:30,0.178,0.162,0.271,0.253,0.250,0.138,0.086,west-southwest,1.1,No
2019/12/31,06:40,0.179,0.161,0.271,0.252,0.253,0.139,0.086,west-southwest,1.8,No
2019/12/31,06:50,0.180,0.162,0.271,0.252,0.250,0.139,0.086,west-southwest,3.5,No
2019/12/31,07:00,0.180,0.161,0.272,0.253,0.251,0.139,0.086,southwest,4.1,No
2019/12/31,07:10,0.180,0.163,0.273,0.252,0.252,0.138,0.086,southwest,4.1,No
2019/12/31,07:20,0.180,0.162,0.272,0.252,0.251,0.138,0.086,west-southwest,2.7,No
2019/12/31,07:30,0.180,0.161,0.272,0.253,0.251,0.138,0.086,west-northwest,3.5,No
2019/12/31,07:40,0.179,0.163,0.271,0.254,0.252,0.139,0.085,west-northwest,3.9,No
2019/12/31,07:50,0.178,0.162,0.272,0.254,0.251,0.138,0.085,west,3.0,No
2019/12/31,08:00,0.180,0.163,0.272,0.253,0.251,0.139,0.085,west-southwest,4.4,No
2019/12/31,08:10,0.180,0.162,0.273,0.253,0.252,0.138,0.085,west-southwest,5.0,No
2019/12/31,08:20,0.181,0.162,0.273,0.252,0.251,0.139,0.085,west-southwest,4.7,No
2019/12/31,08:30,0.180,0.163,0.273,0.251,0.250,0.138,0.085,west,3.0,No
2019/12/31,08:40,0.180,0.163,0.271,0.254,0.251,0.138,0.086,west,1.7,No
2019/12/31,08:50,0.179,0.162,0.273,0.251,0.252,0.138,0.086,southwest,1.5,No
2019/12/31,09:00,0.180,0.163,0.273,0.254,0.251,0.138,0.086,southwest,4.8,No
2019/12/31,09:10,0.180,0.163,0.272,0.251,0.252,0.137,0.085,southwest,3.2,No
2019/12/31,09:20,0.179,0.162,0.271,0.254,0.251,0.138,0.086,south-southwest,3.2,No
2019/12/31,09:30,0.180,0.163,0.274,0.252,0.252,0.138,0.085,south-southwest,3.1,No
2019/12/31,09:40,0.180,0.163,0.272,0.254,0.250,0.138,0.086,southwest,3.5,No
2019/12/31,09:50,0.179,0.161,0.273,0.252,0.253,0.139,0.086,south-southwest,1.9,No
2019/12/31,10:00,0.180,0.162,0.273,0.254,0.250,0.138,0.086,south-southwest,3.6,No
2019/12/31,10:10,0.180,0.162,0.273,0.252,0.253,0.138,0.086,southwest,2.4,No
2019/12/31,10:20,0.179,0.161,0.273,0.255,0.251,0.139,0.085,west-southwest,3.2,No
2019/12/31,10:30,0.179,0.161,0.272,0.252,0.250,0.138,0.086,west,5.5,No
2019/12/31,10:40,0.180,0.162,0.272,0.252,0.251,0.139,0.085,west,6.1,No
2019/12/31,10:50,0.179,0.162,0.273,0.254,0.249,0.139,0.086,west,6.6,No
2019/12/31,11:00,0.179,0.161,0.272,0.252,0.251,0.139,0.085,west,2.2,No
2019/12/31,11:10,0.180,0.162,0.273,0.255,0.251,0.139,0.086,west-southwest,1.2,No
2019/12/31,11:20,0.181,0.163,0.273,0.252,0.251,0.139,0.085,west-northwest,7.7,No
2019/12/31,11:30,0.180,0.162,0.274,0.256,0.253,0.138,0.085,west,11.5,No
2019/12/31,11:40,0.181,0.163,0.273,0.253,0.249,0.139,0.086,west-northwest,12.8,No
2019/12/31,11:50,0.178,0.163,0.273,0.255,0.252,0.139,0.085,west-northwest,15.4,No
2019/12/31,12:00,0.180,0.162,0.273,0.254,0.252,0.139,0.086,west-northwest,14.2,No
2019/12/31,12:10,0.179,0.161,0.273,0.253,0.252,0.139,0.085,west-northwest,14.7,No
2019/12/31,12:20,0.180,0.162,0.274,0.255,0.253,0.140,0.085,west,17.6,No
2019/12/31,12:30,0.180,0.161,0.274,0.252,0.251,0.139,0.085,west-northwest,14.8,No
2019/12/31,12:40,0.180,0.163,0.274,0.255,0.252,0.138,0.086,west-northwest,13.1,No
2019/12/31,12:50,0.180,0.162,0.277,0.253,0.252,0.140,0.085,west,15.6,No
2019/12/31,13:00,0.180,0.162,0.274,0.255,0.252,0.139,0.085,west-northwest,14.5,No
2019/12/31,13:10,0.181,0.163,0.276,0.254,0.254,0.140,0.085,west-northwest,15.1,No
2019/12/31,13:20,0.180,0.163,0.274,0.255,0.252,0.139,0.086,west-northwest,14.3,No
2019/12/31,13:30,0.181,0.163,0.274,0.255,0.253,0.140,0.085,west-northwest,13.6,No
2019/12/31,13:40,0.180,0.162,0.277,0.254,0.252,0.139,0.085,west-northwest,11.7,No
2019/12/31,13:50,0.181,0.162,0.275,0.254,0.253,0.140,0.086,west-northwest,12.2,No
2019/12/31,14:00,0.181,0.164,0.277,0.256,0.253,0.140,0.086,northwest,12.8,No
2019/12/31,14:10,0.182,0.163,0.277,0.256,0.251,0.140,0.086,west-northwest,13.4,No
2019/12/31,14:20,0.183,0.163,0.276,0.256,0.254,0.139,0.087,west-northwest,15.0,No
2019/12/31,14:30,0.183,0.164,0.277,0.256,0.252,0.140,0.086,northwest,14.5,No
2019/12/31,14:40,0.182,0.163,0.277,0.256,0.254,0.140,0.086,west-northwest,12.2,No
2019/12/31,14:50,0.182,0.164,0.278,0.257,0.254,0.139,0.086,west-northwest,14.5,No
2019/12/31,15:00,0.183,0.164,0.278,0.256,0.253,0.140,0.087,northwest,16.2,No
2019/12/31,15:10,0.182,0.165,0.278,0.259,0.254,0.140,0.087,northwest,12.5,No
2019/12/31,15:20,0.182,0.163,0.278,0.259,0.254,0.140,0.087,west-northwest,13.6,No
2019/12/31,15:30,0.182,0.163,0.279,0.258,0.253,0.141,0.087,west-northwest,13.1,No
2019/12/31,15:40,0.183,0.165,0.280,0.258,0.254,0.141,0.088,west-northwest,13.4,No
2019/12/31,15:50,0.183,0.164,0.279,0.257,0.255,0.141,0.087,west-northwest,15.9,No
2019/12/31,16:00,0.183,0.165,0.279,0.258,0.254,0.141,0.086,west-northwest,15.1,No
2019/12/31,16:10,0.184,0.165,0.278,0.258,0.255,0.141,0.088,west-northwest,11.5,No
2019/12/31,16:20,0.183,0.163,0.278,0.257,0.255,0.142,0.087,west-northwest,13.4,No
2019/12/31,16:30,0.184,0.165,0.280,0.259,0.255,0.141,0.087,west-northwest,15.6,No
2019/12/31,16:40,0.183,0.165,0.279,0.257,0.254,0.141,0.087,west-northwest,13.4,No
2019/12/31,16:50,0.184,0.165,0.279,0.258,0.255,0.141,0.087,west-northwest,11.7,No
2019/12/31,17:00,0.184,0.166,0.280,0.257,0.254,0.141,0.087,northwest,7.9,No
2019/12/31,17:10,0.183,0.165,0.279,0.258,0.253,0.142,0.086,north-northwest,7.0,No
2019/12/31,17:20,0.183,0.165,0.277,0.258,0.255,0.141,0.087,northwest,4.6,No
2019/12/31,17:30,0.184,0.165,0.279,0.259,0.253,0.141,0.087,northwest,7.6,No
2019/12/31,17:40,0.183,0.165,0.278,0.257,0.252,0.140,0.087,north-northwest,5.7,No
2019/12/31,17:50,0.182,0.164,0.278,0.257,0.253,0.140,0.087,north-northwest,6.5,No
2019/12/31,18:00,0.182,0.164,0.277,0.257,0.254,0.140,0.087,northwest,9.8,No
2019/12/31,18:10,0.182,0.163,0.277,0.257,0.254,0.140,0.086,northwest,7.7,No
2019/12/31,18:20,0.182,0.164,0.277,0.256,0.253,0.139,0.086,northwest,6.2,No
2019/12/31,18:30,0.182,0.164,0.275,0.258,0.252,0.140,0.086,northwest,9.3,No
2019/12/31,18:40,0.181,0.164,0.277,0.255,0.253,0.140,0.086,northwest,8.4,No
2019/12/31,18:50,0.181,0.164,0.277,0.257,0.253,0.140,0.086,west-northwest,6.4,No
2019/12/31,19:00,0.182,0.162,0.276,0.257,0.253,0.139,0.086,northwest,4.5,No
2019/12/31,19:10,0.181,0.163,0.277,0.256,0.252,0.139,0.086,northwest,3.7,No
2019/12/31,19:20,0.181,0.163,0.276,0.256,0.251,0.139,0.085,north,3.1,No
2019/12/31,19:30,0.183,0.164,0.276,0.255,0.251,0.140,0.086,northwest,4.7,No
2019/12/31,19:40,0.182,0.163,0.275,0.255,0.253,0.139,0.086,northwest,3.5,No
2019/12/31,19:50,0.182,0.163,0.275,0.256,0.252,0.140,0.086,west-northwest,3.9,No
2019/12/31,20:00,0.181,0.163,0.274,0.256,0.252,0.139,0.086,north-northwest,6.0,No
2019/12/31,20:10,0.182,0.163,0.275,0.255,0.251,0.139,0.086,northwest,7.0,No
2019/12/31,20:20,0.181,0.163,0.276,0.255,0.252,0.139,0.085,northwest,6.5,No
2019/12/31,20:30,0.181,0.163,0.274,0.254,0.253,0.139,0.086,northwest,6.4,No
2019/12/31,20:40,0.181,0.163,0.275,0.255,0.251,0.138,0.086,northwest,3.8,No
2019/12/31,20:50,0.182,0.164,0.274,0.255,0.251,0.138,0.086,west-northwest,4.1,No
2019/12/31,21:00,0.181,0.163,0.276,0.255,0.251,0.140,0.085,north-northwest,3.4,No
2019/12/31,21:10,0.182,0.164,0.275,0.255,0.251,0.140,0.085,northwest,7.4,No
2019/12/31,21:20,0.181,0.163,0.276,0.256,0.252,0.139,0.085,northwest,8.4,No
2019/12/31,21:30,0.181,0.162,0.276,0.256,0.253,0.140,0.086,northwest,6.4,No
2019/12/31,21:40,0.182,0.163,0.275,0.255,0.251,0.138,0.086,northwest,8.4,No
2019/12/31,21:50,0.181,0.164,0.275,0.256,0.252,0.139,0.085,northwest,8.7,No
2019/12/31,22:00,0.181,0.162,0.276,0.256,0.253,0.140,0.085,northwest,7.0,No
2019/12/31,22:10,0.181,0.163,0.275,0.256,0.252,0.140,0.085,northwest,7.6,No
2019/12/31,22:20,0.182,0.163,0.276,0.255,0.251,0.139,0.085,west-northwest,7.7,No
2019/12/31,22:30,0.182,0.163,0.275,0.256,0.253,0.140,0.086,northwest,10.4,No
2019/12/31,22:40,0.182,0.163,0.276,0.255,0.253,0.139,0.085,west-northwest,12.6,No
2019/12/31,22:50,0.181,0.164,0.276,0.256,0.251,0.139,0.086,west-northwest,10.6,No
2019/12/31,23:00,0.182,0.163,0.276,0.257,0.252,0.139,0.085,west-northwest,12.6,No
2019/12/31,23:10,0.182,0.163,0.276,0.256,0.252,0.140,0.086,west-northwest,13.9,No
2019/12/31,23:20,0.181,0.163,0.276,0.256,0.253,0.140,0.086,northwest,13.1,No
2019/12/31,23:30,0.181,0.163,0.277,0.257,0.253,0.140,0.086,northwest,11.4,No
2019/12/31,23:40,0.180,0.164,0.276,0.256,0.252,0.141,0.086,west-northwest,12.9,No
2019/12/31,23:50,0.182,0.163,0.278,0.256,0.253,0.140,0.086,west-northwest,8.8,No
